Regional Weather Roundup
Issued by NWS Burlington, VT

Current Version | Previous Version | Graphics & Text | Print | Product List | Glossary Off
Versions: 1 2 3 4 5 6 7 8 9 10 11 12 13 14 15 16 17 18 19 20 21 22 23 24 25 26 27 28 29 30 31 32 33 34 35 36 37 38 39 40 41 42 43 44 45 46 47 48 49 50

000
ASUS41 KBTV 190810
RWRBTV
VERMONT REGIONAL WEATHER ROUNDUP
NATIONAL WEATHER SERVICE BURLINGTON VT
300 AM EST FRI DEC 19 2014

NOTE: "FAIR" INDICATES FEW OR NO CLOUDS BELOW 12,000 FEET WITH NO
SIGNIFICANT WEATHER AND/OR OBSTRUCTIONS TO VISIBILITY.

* THESE REPORTS ARE NOT UNDER NWS QUALITY CONTROL AND/OR DO NOT
  REPORT WEATHER SUCH AS PRECIPITATION AND FOG.

VTZ001>019-190900-
_____VERMONT_____


CITY           SKY/WX    TMP DP  RH WIND       PRES   REMARKS
BURLINGTON     FLURRIES  29  21  72 NW12      29.95R WCI  19
MONTPELIER     CLOUDY    24  21  88 NW8       29.91R
MORRISVILLE    CLOUDY    26  23  88 N7        29.92R FOG
ST. JOHNSBURY*   N/A     29  22  75 MISG      29.87R
LYNDONVILLE*   CLOUDY    26  21  82 W6        29.86S
MIDDLEBURY*    CLOUDY    28  23  79 N8        29.93R
RUTLAND*       CLOUDY    27  21  80 NW9       29.90S
SPRINGFIELD    CLOUDY    30  22  72 W6        29.90S
HIGHGATE*      CLOUDY    26  24  93 CALM      29.95S FOG
NEWPORT*       CLOUDY    25  23  93 NW7       29.89S
BENNINGTON     CLOUDY    30  23  75 W7        29.90S
SUTTON*          N/A     23 N/A N/A MISG        N/A

_____LAKE CHAMPLAIN_____


CITY           SKY/WX    TMP DP  RH WIND       PRES   REMARKS
COLCHESTER RF*   N/A     32  25  74 NW16        N/A

$$

NYZ007-026>031-035-052-083-190900-
_____NORTHERN NEW YORK_____


CITY           SKY/WX    TMP DP  RH WIND       PRES   REMARKS
PLATTSBURGH    CLOUDY    28  21  75 NW9       29.96R
SARANAC LAKE   CLOUDY    20  32 100 W5        29.89R
MASSENA        CLOUDY    25  19  78 NW9       30.03R
OGDENSBURG*    CLOUDY    25  21  86 NW7       30.04R
POTSDAM*       CLOUDY    25  21  86 NW8       30.01S
WATERTOWN      CLOUDY    27  19  72 NW10      30.05R WCI  17
FT DRUM        CLOUDY    23  19  84 VRB6      30.01S
ALBANY         CLOUDY    32  22  66 W15       29.96S
GLENS FALLS    CLOUDY    31  22  69 NW6       29.94S

$$
NHZ002-005-011-190900-
_____NEW HAMPSHIRE_____


CITY           SKY/WX    TMP DP  RH WIND       PRES   REMARKS
LEBANON        CLOUDY    30  22  72 NW5       29.89R
KEENE          CLOUDY    32  25  74 NW5       29.89S
MT WASHINGTON  FOG        7   7 100 NW33G44     N/A  VSB 1/16WCI -18
PLYMOUTH       CLOUDY    30  27  88 W9        29.86S
WHITEFIELD     CLOUDY    28  23  81 W7        29.85R

$$

_____REGIONAL QUEBEC LOCATIONS_____


CITY           SKY/WX    TMP DP  RH WIND       PRES   REMARKS
MONTREAL       PTSUNNY   27  19  74 W8        29.97R
QUEBEC CITY    PTSUNNY   25  18  74 W7        29.86R
SHERBROOKE     CLOUDY    23  21  93 NW5       29.87R

_____REGIONAL ONTARIO LOCATIONS_____


CITY           SKY/WX    TMP DP  RH WIND       PRES   REMARKS
OTTAWA         CLOUDY    21  18  86 NW13      30.03R WCI   9

______KEY______
VSB  - VISIBILITY IN MILES
WCI  - WIND CHILL INDEX
HX   - HEAT INDEX
$$
NNNN



USA.gov is the U.S. government's official web portal to all federal, state and local government web resources and services.